Ketchikan, AK

5:12 PM AKDT on September 24, 2018 (GMT -0800)
Ketchikan International

Weather History for PAKT - December, 2017

Change the Weather History Date:

Wednesday, December 13, 2017

  Actual Average Record
Temperature  
Mean Temperature 47 °F -  
Max Temperature 50 °F 41 °F 54 °F (1962)
Min Temperature 46 °F 31 °F 5 °F (1971)
Degree Days  
Heating Degree Days 18    
Moisture  
Dew Point 45 °F    
Average Humidity 92    
Maximum Humidity 96    
Minimum Humidity 74    
Precipitation  
Precipitation 0.48 in - - ()
Sea Level Pressure  
Sea Level Pressure 30.36 in    
Wind  
Wind Speed 12 mph (SSE)    
Max Wind Speed 16 mph    
Max Gust Speed -    
Visibility 5 miles    
Events Rain    
Averages and records for this station are not official NWS values.
T = Trace of Precipitation, MM = Missing Value Source: NWS Daily Summary

Daily Weather History Graph

Daily Weather History Graph

Search for Another Location

Airport or City:

Astronomy

Dec. 13, 2017 Rise Set
Actual Time 8:06 AM AKST 3:15 PM AKST
Civil Twilight 7:20 AM AKST 4:01 PM AKST
Nautical Twilight 6:32 AM AKST 4:49 PM AKST
Astronomical Twilight 5:47 AM AKST 5:34 PM AKST
Moon 2:50 AM AKST (12/13) 1:42 PM AKST (12/13)
Length of Visible Light 8h 41m
Length of Day
7h 09m
Waning Crescent, 17% of the Moon is Illuminated
Dec 13
Waning Crescent
Dec 17
New
Dec 26
First Quarter
Jan 1
Full
Jan 8
Last Quarter

Hourly Weather History & Observations

Time (AKST) Temp. Windchill Dew Point Humidity Pressure Visibility Wind Dir Wind Speed Gust Speed Precip Events Conditions
12:01 AM 46.0 °F 40.2 °F 45.0 °F 96% 30.37 in 2.0 mi SE 12.7 mph - 0.01 in Rain Light Rain
12:11 AM 46.0 °F 40.2 °F 45.0 °F 96% 30.38 in 1.8 mi SSE 12.7 mph - 0.03 in Rain Rain
12:37 AM 46.0 °F 40.6 °F 45.0 °F 96% 30.39 in 1.5 mi SE 11.5 mph - 0.10 in Rain Rain
12:51 AM 46.4 °F 40.7 °F 44.6 °F 93% 30.40 in 2.0 mi SE 12.7 mph - 0.12 in Rain Light Rain
12:53 AM 46.0 °F 40.2 °F 45.0 °F 96% 30.40 in 2.0 mi SE 12.7 mph - 0.13 in Rain Light Rain
12:59 AM 46.0 °F 40.6 °F 45.0 °F 96% 30.40 in 1.8 mi SE 11.5 mph - 0.01 in Rain Rain
1:40 AM 46.0 °F 39.3 °F 45.0 °F 96% 30.39 in 2.0 mi SE 16.1 mph - 0.09 in Rain Light Rain
1:51 AM 46.4 °F 40.1 °F 44.6 °F 93% 30.39 in 1.8 mi SE 15.0 mph - 0.12 in Rain Rain
1:53 AM 46.0 °F 39.6 °F 45.0 °F 96% 30.39 in 1.8 mi SE 15.0 mph - 0.12 in Rain Light Rain
2:44 AM 46.0 °F 39.3 °F 45.0 °F 96% 30.39 in 3.0 mi SE 16.1 mph - 0.10 in Rain Light Rain
2:53 AM 46.0 °F 39.9 °F 44.1 °F 93% 30.39 in 6.0 mi SE 13.8 mph - 0.10 in Rain Light Rain
3:24 AM 46.0 °F 40.2 °F 44.1 °F 93% 30.39 in 2.0 mi SSE 12.7 mph - 0.02 in Rain Light Rain
3:32 AM 46.0 °F 39.9 °F 44.1 °F 93% 30.39 in 1.8 mi SE 13.8 mph - 0.04 in Rain Light Rain
3:51 AM 46.4 °F 40.7 °F 44.6 °F 93% 30.39 in 2.0 mi SE 12.7 mph - 0.06 in Rain Light Rain
3:53 AM 46.0 °F 39.9 °F 45.0 °F 96% 30.39 in 2.0 mi SE 13.8 mph - 0.06 in Rain Light Rain
4:07 AM 46.0 °F 41.0 °F 45.0 °F 96% 30.40 in 4.0 mi SSE 10.4 mph - 0.01 in Rain Light Rain
4:31 AM 46.0 °F 40.2 °F 44.1 °F 93% 30.39 in 2.0 mi SE 12.7 mph - 0.02 in Rain Light Rain
4:51 AM 46.4 °F 40.7 °F 44.6 °F 93% 30.41 in 3.0 mi SE 12.7 mph - 0.03 in Rain Light Rain
4:53 AM 46.0 °F 40.2 °F 45.0 °F 96% 30.41 in 3.0 mi SE 12.7 mph - 0.03 in Rain Light Rain
5:06 AM 46.0 °F 39.9 °F 45.0 °F 96% 30.40 in 2.0 mi SE 13.8 mph - 0.02 in Rain Light Rain
5:27 AM 46.0 °F 40.6 °F 45.0 °F 96% 30.40 in 3.0 mi SSE 11.5 mph - 0.04 in Rain Light Rain
5:53 AM 46.0 °F 41.0 °F 44.1 °F 93% 30.41 in 10.0 mi SSE 10.4 mph - 0.04 in   Overcast
6:09 AM 46.4 °F 41.1 °F 44.6 °F 93% 30.41 in 4.0 mi SSE 11.5 mph - N/A Rain Light Rain
6:53 AM 46.4 °F 40.4 °F 44.6 °F 93% 30.40 in 3.0 mi SSE 13.8 mph - N/A Rain Light Rain
7:53 AM 46.4 °F 41.1 °F 44.6 °F 93% 30.40 in 7.0 mi SSE 11.5 mph - N/A Rain Light Rain
8:53 AM 46.4 °F 40.4 °F 44.6 °F 93% 30.42 in 3.0 mi SE 13.8 mph - N/A Rain Light Rain
9:53 AM 46.4 °F 42.4 °F 44.6 °F 93% 30.41 in 10.0 mi South 8.1 mph - N/A   Overcast
10:53 AM 46.4 °F 42.4 °F 44.6 °F 93% 30.40 in 10.0 mi SSE 8.1 mph - N/A   Overcast
11:53 AM 46.4 °F 42.4 °F 44.6 °F 93% 30.40 in 3.0 mi SSE 8.1 mph - N/A   Overcast
12:53 PM 46.4 °F 41.5 °F 44.6 °F 93% 30.39 in 7.0 mi SSE 10.4 mph - N/A   Overcast
1:53 PM 46.4 °F 42.9 °F 44.6 °F 93% 30.38 in 9.0 mi South 6.9 mph - N/A   Overcast
2:53 PM 46.4 °F 44.3 °F 44.6 °F 93% 30.37 in 3.0 mi South 4.6 mph - N/A Rain Light Rain
3:53 PM 46.4 °F 42.4 °F 44.6 °F 93% 30.32 in 10.0 mi South 8.1 mph - N/A   Overcast
4:53 PM 46.4 °F 42.9 °F 44.6 °F 93% 30.31 in 10.0 mi South 6.9 mph - N/A Rain Light Rain
5:53 PM 48.2 °F - 44.6 °F 87% 30.29 in 10.0 mi SSE 6.9 mph - N/A Rain Light Rain
6:53 PM 48.2 °F - 44.6 °F 87% 30.27 in 10.0 mi South 9.2 mph - N/A Rain Light Rain
7:53 PM 46.4 °F 44.3 °F 44.6 °F 93% 30.23 in 10.0 mi SE 4.6 mph - N/A   Overcast
8:53 PM 48.2 °F - 44.6 °F 87% 30.21 in 10.0 mi SSE 6.9 mph - N/A   Overcast
9:53 PM 48.9 °F - 43.0 °F 80% 30.18 in 10.0 mi SSE 5.8 mph - N/A   Overcast
10:53 PM 48.9 °F - 43.0 °F 80% 30.18 in 10.0 mi SSE 11.5 mph - N/A   Overcast
11:53 PM 50.0 °F - 42.1 °F 74% 30.17 in 10.0 mi SE 10.4 mph - N/A   Mostly Cloudy